This is the latest recevied weather packets stored in our database for station/object KA4YMY. If no packets are shown the sender has not sent any weather packets the latest 10 day(s).
| Time | Temp. | Humidity | Pressure | Rain* | Wind** | Luminosity | Snow |
|---|---|---|---|---|---|---|---|
| 1777239917 | 22.22° C | 64% | 1013.9 hPa | 0 mm | - | - | - |
| 1777239317 | 22.22° C | 64% | 1013.8 hPa | 0 mm | - | - | - |
| 1777238717 | 22.22° C | 65% | 1013.8 hPa | 0 mm | - | - | - |
| 1777238117 | 22.22° C | 64% | 1013.7 hPa | 0 mm | - | - | - |
| 1777237517 | 22.22° C | 63% | 1013.7 hPa | 0 mm | - | - | - |
| 1777236917 | 21.67° C | 66% | 1013.5 hPa | 0 mm | - | - | - |
| 1777236317 | 21.67° C | 64% | 1013.6 hPa | 0 mm | - | - | - |
| 1777235717 | 22.78° C | 63% | 1013.4 hPa | 0 mm | - | - | - |
| 1777235116 | 22.22° C | 65% | 1013.4 hPa | 0 mm | - | - | - |
| 1777234517 | 22.22° C | 63% | 1013.4 hPa | 0 mm | - | - | - |
| 1777233917 | 22.22° C | 66% | 1013.4 hPa | 0 mm | - | - | - |
| 1777233317 | 22.78° C | 64% | 1013.3 hPa | 0 mm | - | - | - |
| 1777232717 | 22.78° C | 63% | 1013.3 hPa | 0 mm | - | - | - |
| 1777232116 | 22.78° C | 66% | 1013.4 hPa | 0 mm | - | - | - |
| 1777231516 | 22.78° C | 64% | 1013.4 hPa | 0 mm | - | - | - |
| 1777230916 | 22.78° C | 65% | 1013.4 hPa | 0 mm | - | - | - |
| 1777230316 | 22.78° C | 66% | 1013.4 hPa | 0 mm | - | - | - |
| 1777229716 | 22.78° C | 65% | 1013.5 hPa | 0 mm | - | - | - |
| 1777229116 | 22.78° C | 66% | 1013.5 hPa | 0 mm | - | - | - |
| 1777228516 | 23.33° C | 66% | 1013.4 hPa | 0 mm | - | - | - |
| 1777227916 | 22.78° C | 68% | 1013.4 hPa | 0 mm | - | - | - |
| 1777227316 | 22.22° C | 68% | 1013.4 hPa | 0 mm | - | - | - |
| 1777226716 | 22.78° C | 68% | 1013.4 hPa | 0 mm | - | - | - |
| 1777226116 | 22.22° C | 69% | 1013.5 hPa | 0 mm | - | - | - |
| 1777225516 | 21.67° C | 70% | 1013.5 hPa | 0 mm | - | - | - |
* Rain latest hour (hover to see other rain measurements)
** Current wind speed in m/s (hover to see current wind gust speed)